Location: Mahannah Oil Field
(37.4664°N, 96.6003°W)
Time: 19:36:32
(UTC+00:00)

Vanguard 2 Rocket - Pass Details

Date: 29 January 2021
Orbit: 554 x 3326 km, 32.9° (Epoch: 26 February)

Event Time Altitude Azimuth Distance (km) Brightness Sun altitude
Rises 16:41:54 0° 202° (SSW) 7,137 11.9 28.2°
Reaches altitude 10° 16:47:52 10° 192° (SSW) 6,249 12.0 28.9°
Maximum altitude 17:03:01 27° 143° (SE) 4,746 13.1 30.3°
Drops below altitude 10° 17:15:51 10° 94° (E) 5,335 11.3 31.4°
Sets 17:20:17 0° 83° (E) 5,975 11.3 31.7°
